KE0DYO Weather Reports


Display with metric or nautical units.
time (UTC)temp
F
wind
direction
speed
MPH
gust
MPH
rain 1hr
in
rain 24hr
in
rain mn
in
humidity
%
barometer
mb
20260504204538 80 360 3.0 7.0 0.00 0.00 0.00 51 1003.1
20260504203056 81 360 2.0 7.0 0.00 0.00 0.00 48 1003.3
20260504201505 80 360 3.0 11.0 0.00 0.00 0.00 49 1003.4
20260504200026 80 360 4.0 10.0 0.00 0.00 0.00 49 1003.5
20260504194542 79 360 2.0 6.0 0.00 0.00 0.00 47 1003.6
20260504193055 79 360 3.0 8.0 0.00 0.00 0.00 49 1003.6
20260504191529 79 360 3.0 8.0 0.00 0.00 0.00 50 1003.6
20260504190030 78 360 3.0 6.0 0.00 0.00 0.00 49 1003.8
20260504184546 78 360 2.0 10.0 0.00 0.00 0.00 53 1003.8
20260504183006 78 360 3.0 10.0 0.00 0.00 0.00 53 1004.0
20260504181522 77 360 1.0 6.0 0.00 0.00 0.00 55 1003.9
20260504180048 77 360 4.0 9.0 0.00 0.00 0.00 52 1004.1
20260504174550 76 360 2.0 9.0 0.00 0.00 0.00 50 1004.3
20260504173006 76 360 2.0 9.0 0.00 0.00 0.00 53 1004.3
20260504171532 76 360 3.0 7.0 0.00 0.00 0.00 54 1004.3
20260504081538 62 360 0.0 2.0 0.00 0.00 0.00 65 1007.2
20260504080114 62 360 0.0 0.0 0.00 0.00 0.00 67 1007.3
20260504050107 66 360 0.0 2.0 0.00 0.00 0.00 66 1009.8
20260504044502 67 360 0.0 3.0 0.00 0.00 0.00 64 1009.4
20260504043016 68 360 2.0 6.0 0.00 0.00 0.00 59 1009.7
20260504041532 68 360 3.0 6.0 0.00 0.00 0.00 60 1009.6
20260504040110 68 360 3.0 10.0 0.00 0.00 0.00 59 1009.7
20260504034505 68 360 6.0 8.0 0.00 0.00 0.00 59 1010.1
20260504033012 67 360 2.0 4.0 0.00 0.00 0.00 60 1009.7
20260504031535 68 360 2.0 4.0 0.00 0.00 0.00 59 1009.7
20260504030045 66 360 2.0 3.0 0.00 0.00 0.00 61 1009.9
20260504024502 68 360 1.0 6.0 0.00 0.00 0.00 61 1010.1
20260504023021 67 360 1.0 2.0 0.00 0.00 0.00 60 1009.9
20260504021536 68 360 0.0 3.0 0.00 0.00 0.00 57 1009.9
20260504020004 70 360 0.0 3.0 0.00 0.00 0.00 57 1010.0
20260504014523 70 360 0.0 1.0 0.00 0.00 0.00 54 1009.9
20260504013036 71 360 0.0 0.0 0.00 0.00 0.00 51 1009.8
20260504011546 73 360 0.0 3.0 0.00 0.00 0.00 51 1009.7
20260504010006 74 360 2.0 3.0 0.00 0.00 0.00 48 1009.5
20260504004517 75 360 2.0 3.0 0.00 0.00 0.00 47 1009.7
20260504003035 75 360 2.0 5.0 0.00 0.00 0.00 46 1009.8
20260504001602 76 360 3.0 8.0 0.00 0.00 0.00 45 1009.9
20260504000129 77 360 5.0 9.0 0.00 0.00 0.00 45 1009.9
20260504000003 77 360 5.0 8.0 0.00 0.00 0.00 45 1009.9
20260503234522 77 360 3.0 7.0 0.00 0.00 0.00 45 1010.0
20260503233040 78 360 2.0 7.0 0.00 0.00 0.00 45 1009.9
20260503231544 79 360 1.0 3.0 0.00 0.00 0.00 45 1010.1
20260503230019 79 360 1.0 4.0 0.00 0.00 0.00 45 1010.1
20260503224527 79 360 1.0 4.0 0.00 0.00 0.00 43 1010.2
20260503223049 80 360 1.0 5.0 0.00 0.00 0.00 41 1010.3
20260503221510 80 360 2.0 6.0 0.00 0.00 0.00 39 1010.6
20260503220025 80 360 2.0 5.0 0.00 0.00 0.00 41 1010.7
20260503214539 80 360 3.0 7.0 0.00 0.00 0.00 39 1010.8
20260503213048 79 360 1.0 8.0 0.00 0.00 0.00 44 1011.0
20260503211513 79 360 2.0 6.0 0.00 0.00 0.00 45 1011.2
20260503210028 78 360 1.0 4.0 0.00 0.00 0.00 43 1011.5